OBJECT D, 62732

Orbit data source: Space-Track

You're viewing an Uncataloged Satellite

Recently launched and/or uncataloged satellites may have evolving metadata. Metadata may include but not limited to: Owner, Maufacturer, Bus, Motor, and Mission.

OBJECT D, 62732 is a satellite owned by Yunyao yuhang (CN) in SSO that was launched on Mon, 20 Jan 2025 UTC via a GUSHENXING 1 launch vehicle from the Jiuquan Satellite Launch Center, China (JSC). Unknown objects in Earth's orbit typically refer to objects detected orbiting the Earth but have not yet been identified or cataloged. These objects could be anything from previously untracked satellites, spent rocket stages, debris from satellite collisions, or even natural meteoroids temporarily captured by Earth's gravity.

Loading next visibility...
Identifier
62732, 2025-013D
Orbit
SSO
Country
Flag of CNCN / PRC
Related business
None
Manufacturer
Changguang WJ
Mission
Operational Commercial Weather
Bus & Motor
YY-1, Unknown motor
Mass
~50 kg wet, ~50 kg dry
Launch date (UTC)
2025-01-20 (8 months ago)
Launch vehicle
GUSHENXING 1
Launch site
Jiuquan Satellite Launch Center, China (JSC)
Object type
Unknown
Shape & HBR
Box + 1 Pan, 2.5 m
Radar Cross Section
5.339 m², Medium (>0.1 m² and < 1m²)

Expand to show TLE details & history
Last TLE update: 10 hours ago

TLE from 10 hours ago
0 OBJECT D
1 62732U 25013D   25259.28665384  .00004750  00000-0  30887-3 0  9991
2 62732  97.6332  64.3445 0008039 244.9254 115.1140 15.08451501 35942
Epoch: 2025-09-16T06:52Z
TLE epoch observation values (Epoch: 2025-09-16T06:52:46.891Z)
Latitude
-0.00006°
Longitude
-34.33°
Altitude
546.364 km
Speed
7.588 km/s
True Right ascension
04h 17m 22s
True Declination
0° 00' 00"
Sunlit
Object was in daylight at epoch
Visualization orbit readout
Latitude
Unknown
Longitude
Unknown
Altitude
Unknown
Speed
Unknown
Apparent Right ascension
Unknown
Apparent Declination
Unknown
Sunlit
N/A
Visualization observer readout
Local Sidereal Time
09:28:18
Azimuth
Unknown
Elevation
Unknown
Doppler factor
Unknown
Orbital elements
Apogee altitude
543.482 km
Perigee altitude
532.362 km
Semi-major axis
6,916.059 km
Eccentricity
0.0008
Inclination
97.6332°
RAAN
64.3445°
Arg. of periapsis
244.9254°
True anomaly
115.19738°
Mean anomaly
115.114°
Eccentric anomaly
115.15569°
Mean motion
3.77359 °/min
Orbital period
95.4 mins
BSTAR
0.00030887
Loading maneuver chart data...
Computing Atmospheric mass density...
Loading historical data...
Loading historical data...
Loading historical data...
Loading historical data...
Loading historical data...
Loading historical data...
Loading historical data...
Other satellites on launch #13 in the year 2025 (2025-01-20 UTC)

Documentation

Showing up to 5 results
|